FW1683 Weather Reports


time (UTC)temp
C
wind
direction
speed
KPH
gust
KPH
rain 1hr
cm
rain 24hr
cm
rain mn
cm
humidity
%
barometer
mb
20220811230004 27 270 6.4 11.3 0.00 0.00 0.00 100 1007.5
20220811225004 27 280 6.4 12.9 0.00 0.00 0.00 100 1007.4
20220811223004 27 306 9.7 16.1 0.00 0.00 0.00 100 1007.4
20220811221006 27 351 4.8 11.3 0.00 0.00 0.00 100 1007.3
20220811220004 27 15 8.0 14.5 0.00 0.00 0.00 100 1007.3
20220811214004 27 20 6.4 12.9 0.00 0.00 0.00 100 1007.2
20220811213003 27 23 4.8 9.7 0.00 0.00 0.00 99 1007.2
20220811211005 28 23 6.4 12.9 0.00 0.00 0.00 95 1007.1
20220811203005 28 82 6.4 14.5 0.00 0.00 0.00 90 1006.7
20220811202005 28 113 4.8 8.0 0.00 0.00 0.00 84 1006.6
20220811201004 28 113 3.2 8.0 0.00 0.00 0.00 78 1006.5
20220811200005 28 87 4.8 12.9 0.00 0.00 0.00 76 1006.4
20220811195005 28 23 4.8 11.3 0.00 0.00 0.00 81 1006.2
20220811194004 28 23 3.2 8.0 0.00 0.00 0.00 80 1006.1
20220811191004 28 49 8.0 16.1 0.00 0.00 0.00 76 1005.7
20220811185003 28 90 6.4 14.5 0.00 0.00 0.00 76 1005.7
20220811184005 29 104 8.0 17.7 0.00 0.00 0.00 78 1005.5
20220811183004 29 130 9.7 19.3 0.00 0.00 0.00 78 1005.5
20220811182005 30 100 9.7 22.5 0.00 0.00 0.00 75 1005.5
20220811180004 30 106 8.0 17.7 0.00 0.00 0.00 74 1005.5
20220811173004 31 132 9.7 24.1 0.00 0.00 0.00 70 1005.5
20220811165004 31 112 12.9 25.7 0.00 0.00 0.00 64 1005.6
20220811155004 32 116 11.3 22.5 0.00 0.00 0.00 52 1005.9
20220811145004 33 96 12.9 24.1 0.00 0.00 0.00 45 1006.3
20220811143003 33 147 12.9 24.1 0.00 0.00 0.00 39 1006.5
20220811142005 32 151 14.5 24.1 0.00 0.00 0.00 41 1006.6
20220811141004 32 139 14.5 27.4 0.00 0.00 0.00 42 1006.7
20220811135004 33 123 11.3 22.5 0.00 0.00 0.00 43 1006.9
20220811132003 33 128 11.3 24.1 0.00 0.00 0.00 42 1007.0
20220811131004 33 106 12.9 27.4 0.00 0.00 0.00 36 1007.0
20220811125004 33 117 11.3 20.9 0.00 0.00 0.00 36 1007.1
20220811123004 33 97 11.3 24.1 0.00 0.00 0.00 48 1007.2
20220811115003 32 118 12.9 24.1 0.00 0.00 0.00 55 1007.2
20220811113004 31 142 14.5 29.0 0.00 0.00 0.00 66 1007.3
20220811112004 31 151 12.9 27.4 0.00 0.00 0.00 62 1007.3
20220811111005 32 141 11.3 20.9 0.00 0.00 0.00 56 1007.2
20220811103004 32 91 9.7 17.7 0.00 0.00 0.00 47 1007.3
20220811101004 32 108 9.7 16.1 0.00 0.00 0.00 48 1007.4
20220811100005 32 111 6.4 12.9 0.00 0.00 0.00 41 1007.4
20220811095004 32 116 8.0 14.5 0.00 0.00 0.00 43 1007.4
20220811094004 32 113 4.8 11.3 0.00 0.00 0.00 43 1007.4
20220811083005 30 282 4.8 9.7 0.00 0.00 0.00 43 1007.5
20220811074004 27 293 6.4 12.9 0.00 0.00 0.00 55 1007.5
20220811073003 27 297 4.8 12.9 0.00 0.00 0.00 59 1007.5
20220811071005 26 350 6.4 12.9 0.00 0.00 0.00 70 1007.4
20220811070004 25 0 4.8 14.5 0.00 0.00 0.00 73 1007.3
20220811065004 25 0 4.8 11.3 0.00 0.00 0.00 79 1007.2
20220811064004 25 0 4.8 11.3 0.00 0.00 0.00 83 1007.2
20220811063004 24 352 6.4 12.9 0.00 0.00 0.00 85 1007.2
20220811062003 24 313 4.8 11.3 0.00 0.00 0.00 89 1007.2
20220811060004 23 334 8.0 16.1 0.00 0.00 0.00 95 1007.0
20220811054004 23 313 4.8 9.7 0.00 0.00 0.00 92 1006.8
20220811053007 23 314 4.8 11.3 0.00 0.00 0.00 88 1006.9
20220811051007 23 341 4.8 16.1 0.00 0.00 0.00 79 1006.7
20220811050008 23 308 6.4 19.3 0.00 0.00 0.00 78 1006.8
20220811044004 23 293 6.4 12.9 0.00 0.00 0.00 77 1006.8
20220811043004 23 293 6.4 9.7 0.00 0.00 0.00 77 1006.7
20220811042004 23 293 4.8 11.3 0.00 0.00 0.00 79 1006.7
20220811040009 23 298 9.7 19.3 0.00 0.00 0.00 81 1006.6
20220811035005 23 315 9.7 17.7 0.00 0.00 0.00 83 1006.7
20220811034006 23 357 9.7 14.5 0.00 0.00 0.00 86 1006.7
20220811031005 24 336 4.8 12.9 0.00 0.00 0.00 89 1006.9
20220811023005 25 313 6.4 12.9 0.00 0.00 0.00 91 1006.9
20220811021011 25 312 9.7 20.9 0.00 0.00 0.00 86 1007.0
20220811015005 25 317 8.0 14.5 0.00 0.00 0.00 87 1006.8
20220811014007 25 331 8.0 14.5 0.00 0.00 0.00 87 1006.8
20220811011006 25 314 6.4 12.9 0.00 0.00 0.00 78 1006.9
20220811005006 25 313 6.4 12.9 0.00 0.00 0.00 91 1007.0
20220811004003 26 311 6.4 14.5 0.00 0.00 0.00 95 1007.0
20220811001009 26 23 1.6 6.4 0.00 0.00 0.00 99 1007.0
20220810235004 26 23 4.8 9.7 0.00 0.00 0.00 98 1007.1